User: anonymous   Login
Location: Caltech
(34.1382°N, 118.1253°W)
Time: 07:59:58
(UTC-08:00)
Language:

SO-67 - Orbit

View from above orbital plane
View from above orbital plane
View from above satellite
View from above satellite

Ground track
Ground track

The orbit data is extracted from the following two-line orbital elements,

1 35870U 09049F   14327.47343256  .00016724  00000-0  47673-3 0  7219
2 35870 097.1497 343.9065 0000922 107.6280 029.2689 15.36139434288473
Epoch (UTC): 23 November 2014 11:21:44
Eccentricity: 0.0000922
inclination: 97.1497°
perigee height: 457 km
apogee height: 458 km
right ascension of ascending node: 343.9065°
argument of perigee: 107.6280°
revolutions per day: 15.36139434
mean anomaly at epoch: 29.2689°
orbit number at epoch: 28847

The dashed part of the orbit path shows where the satellite is in the earth's shadow,  

DLR